Regional Weather Roundup
Issued by NWS

Home | Current Version | Previous Version | Text Only | Print | Product List | Glossary Off
Versions: 1 2 3 4 5 6 7 8 9 10 11 12 13 14 15 16 17 18 19 20 21 22 23 24 25 26 27 28 29 30 31 32 33 34 35 36 37 38 39 40 41 42 43 44 45 46 47 48 49 50

000
ASUS45 KCYS 031310
RWRWY

WYOMING REGIONAL WEATHER ROUNDUP
NATIONAL WEATHER SERVICE CHEYENNE WY
700 AM MDT THU SEP 03 2015

NOTE:  "FAIR" INDICATES FEW OR NO CLOUDS BELOW 12,000 FEET
WITH NO SIGNIFICANT WEATHER AND/OR OBSTRUCTIONS TO VISIBILITY.

WYZ001-031400-
YELLOWSTONE NATIONAL PARK

CITY           SKY/WX    TMP DP  RH WIND       PRES   REMARKS
LK YELLOWSTONE   N/A     44  43  96 NW5       30.09S
W YELLOWSTONE  NOT AVBL

$$
WYZ002>013-054>058-071-098>099-031400-
NORTHERN WYOMING

CITY           SKY/WX    TMP DP  RH WIND       PRES   REMARKS
JACKSON        MOCLDY    55  39  54 CALM      30.00R
CODY           FAIR      61  37  41 NE6       29.91R
GREYBULL       FAIR      61  31  32 NW13      29.83R
WORLAND        FAIR      63  42  46 S5        29.83R
SHERIDAN       FAIR      63  37  38 NW7       29.86R
BUFFALO        FAIR      63  36  36 NW3       29.92R
GILLETTE       FAIR      69  38  32 SW13      29.85R
HULETT         FAIR      70  39  32 SW7       29.86R
NEWCASTLE      FAIR      59  37  44 MISG      29.90R

$$
WYZ014>020-022>026-101>103-031400-
CENTRAL WYOMING

CITY           SKY/WX    TMP DP  RH WIND       PRES   REMARKS
BIG PINEY      FAIR      45  32  60 E5        30.10R
PINEDALE       PTSUNNY   43  36  75 CALM      30.11S
DUBOIS         FAIR      54  32  43 W9G20     30.06F
LANDER         FAIR      72  35  25 SW8       29.95R
RIVERTON       FAIR      63  36  36 CALM      29.96R
CASPER         FAIR      64  40  41 SW10      29.97S
DOUGLAS        FAIR      60  40  47 CALM      29.97R

$$
WYZ021-027>030-104>119-031400-
SOUTHERN WYOMING

CITY           SKY/WX    TMP DP  RH WIND       PRES   REMARKS
EVANSTON       FAIR      60  35  39 SW10      30.11S
KEMMERER       FAIR      55  32  41 S3        30.12R
FORT BRIDGER   SUNNY     66  34  30 SW14G21   30.14R
ROCK SPRINGS   FAIR      59  39  47 SE5       30.10R
DIXON          FAIR      51  46  82 CALM      30.15S
RAWLINS        FAIR      65  40  39 SW21G26   30.11R
SARATOGA       FAIR      55  43  62 S9        30.15R
LARAMIE        FAIR      56  42  59 SW8       30.17R
CHEYENNE       FAIR      61  44  53 W5        30.08R
TORRINGTON     FAIR      62  47  57 CALM      29.92R
PINE BLUFFS    FAIR      55  43  62 S5        30.02R

$$


USA.gov is the U.S. government's official web portal to all federal, state and local government web resources and services.